Clovis, NM

10:48 PM MDT on April 29, 2017 (GMT -0600)
Clovis Municipal

Weather History for KCVN - December, 2012

Change the Weather History Date:

Sunday, December 16, 2012

  Actual Average Record
Temperature  
Mean Temperature 43 °F -  
Max Temperature 53 °F 49 °F 74 °F (1939)
Min Temperature 33 °F 23 °F 4 °F (1987)
Degree Days  
Heating Degree Days 22    
Moisture  
Dew Point 23 °F    
Average Humidity 48    
Maximum Humidity 65    
Minimum Humidity 33    
Precipitation  
Precipitation 0.00 in - - ()
Sea Level Pressure  
Sea Level Pressure 29.84 in    
Wind  
Wind Speed 21 mph (West)    
Max Wind Speed 37 mph    
Max Gust Speed 47 mph    
Visibility 10 miles    
Events      
Averages and records for this station are not official NWS values.
T = Trace of Precipitation, MM = Missing Value Source: NWS Daily Summary

Daily Weather History Graph

Daily Weather History Graph

Search for Another Location

Airport or City:

Trip Planner

Search our weather history database for the weather conditions in past years. The results will help you decide how hot, cold, wet, or windy it might be!

Date:

Astronomy

Dec. 16, 2012 Rise Set
Actual Time 6:52 AM MST 4:44 PM MST
Civil Twilight 6:24 AM MST 5:12 PM MST
Nautical Twilight 5:53 AM MST 5:43 PM MST
Astronomical Twilight 5:22 AM MST 6:14 PM MST
Moon 9:34 AM MST (12/16) 8:52 PM MST (12/16)
Length of Visible Light 10h 47m
Length of Day
9h 51m
Waxing Crescent, 16% of the Moon is Illuminated
Dec 16
Waxing Crescent
Dec 19
First Quarter
Dec 28
Full
Jan 4
Last Quarter
Jan 11
New

Hourly Weather History & Observations

Time (MST) Temp. Windchill Dew Point Humidity Pressure Visibility Wind Dir Wind Speed Gust Speed Precip Events Conditions
12:15 AM 35.6 °F 26.2 °F 23.0 °F 60% 29.83 in 10.0 mi WSW 15.0 mph - N/A   Clear
12:35 AM 35.6 °F 25.5 °F 23.0 °F 60% 29.83 in 10.0 mi WSW 17.3 mph - N/A   Clear
12:55 AM 35.6 °F 25.9 °F 21.2 °F 56% 29.83 in 10.0 mi WSW 16.1 mph - N/A   Clear
1:15 AM 35.6 °F 26.6 °F 23.0 °F 60% 29.83 in 10.0 mi WSW 13.8 mph - N/A   Clear
1:55 AM 35.6 °F 26.2 °F 24.8 °F 65% 29.84 in 10.0 mi West 15.0 mph - N/A   Scattered Clouds
2:15 AM 37.4 °F 28.9 °F 24.8 °F 60% 29.84 in 10.0 mi West 13.8 mph - N/A   Mostly Cloudy
2:35 AM 37.4 °F 28.9 °F 24.8 °F 60% 29.86 in 10.0 mi West 13.8 mph 21.9 mph N/A   Mostly Cloudy
2:55 AM 37.4 °F 28.5 °F 24.8 °F 60% 29.86 in 10.0 mi West 15.0 mph - N/A   Partly Cloudy
3:15 AM 37.4 °F 28.9 °F 26.6 °F 65% 29.85 in 10.0 mi West 13.8 mph - N/A   Clear
3:35 AM 37.4 °F 26.6 °F 26.6 °F 65% 29.85 in 10.0 mi West 21.9 mph - N/A   Clear
3:55 AM 39.2 °F 29.6 °F 28.4 °F 65% 29.85 in 10.0 mi West 19.6 mph - N/A   Clear
4:15 AM 39.2 °F 29.3 °F 28.4 °F 65% 29.84 in 10.0 mi West 20.7 mph 25.3 mph N/A   Clear
4:35 AM 39.2 °F 29.0 °F 28.4 °F 65% 29.84 in 10.0 mi West 21.9 mph 26.5 mph N/A   Clear
4:55 AM 37.4 °F 27.2 °F 26.6 °F 65% 29.84 in 10.0 mi West 19.6 mph 23.0 mph N/A   Clear
5:15 AM 39.2 °F 28.5 °F 26.6 °F 61% 29.83 in 10.0 mi West 24.2 mph 31.1 mph N/A   Clear
5:35 AM 39.2 °F 28.5 °F 26.6 °F 61% 29.83 in 10.0 mi West 24.2 mph 29.9 mph N/A   Clear
6:15 AM 39.2 °F 28.5 °F 24.8 °F 56% 29.84 in 10.0 mi West 24.2 mph 31.1 mph N/A   Clear
6:35 AM 39.2 °F 28.3 °F 24.8 °F 56% 29.85 in 10.0 mi West 25.3 mph 36.8 mph N/A   Clear
6:55 AM 39.2 °F 29.3 °F 24.8 °F 56% 29.86 in 10.0 mi WNW 20.7 mph 26.5 mph N/A   Clear
7:15 AM 39.2 °F 29.0 °F 24.8 °F 56% 29.86 in 10.0 mi West 21.9 mph 26.5 mph N/A   Clear
7:35 AM 39.2 °F 29.3 °F 24.8 °F 56% 29.86 in 10.0 mi West 20.7 mph - N/A   Clear
7:55 AM 39.2 °F 30.5 °F 26.6 °F 61% 29.88 in 10.0 mi WNW 16.1 mph - N/A   Clear
8:15 AM 41.0 °F 32.5 °F 26.6 °F 57% 29.88 in 10.0 mi West 17.3 mph 23.0 mph N/A   Clear
8:35 AM 42.8 °F 34.3 °F 26.6 °F 53% 29.88 in 10.0 mi West 19.6 mph 24.2 mph N/A   Clear
8:55 AM 44.6 °F 36.4 °F 26.6 °F 49% 29.88 in 10.0 mi West 20.7 mph 26.5 mph N/A   Clear
9:15 AM 46.4 °F 39.0 °F 26.6 °F 46% 29.89 in 10.0 mi West 19.6 mph 25.3 mph N/A   Clear
9:35 AM 46.4 °F 38.1 °F 24.8 °F 43% 29.87 in 10.0 mi West 24.2 mph 29.9 mph N/A   Clear
9:55 AM 46.4 °F 37.7 °F 21.2 °F 37% 29.87 in 10.0 mi West 26.5 mph 33.4 mph N/A   Clear
10:15 AM 46.4 °F 39.0 °F 23.0 °F 40% 29.88 in 10.0 mi WNW 19.6 mph 32.2 mph N/A   Clear
10:35 AM 46.4 °F 37.9 °F 24.8 °F 43% 29.87 in 10.0 mi West 25.3 mph 28.8 mph N/A   Clear
10:55 AM 48.2 °F - 24.8 °F 40% 29.86 in 10.0 mi West 24.2 mph 34.5 mph N/A   Clear
11:15 AM 48.2 °F - 23.0 °F 37% 29.85 in 10.0 mi West 26.5 mph - N/A   Clear
11:35 AM 48.2 °F - 24.8 °F 40% 29.84 in 10.0 mi West 23.0 mph 27.6 mph N/A   Clear
11:55 AM 46.4 °F 38.5 °F 24.8 °F 43% 29.83 in 10.0 mi West 21.9 mph 29.9 mph N/A   Clear
12:15 PM 46.4 °F 38.1 °F 26.6 °F 46% 29.81 in 10.0 mi West 24.2 mph 28.8 mph N/A   Clear
12:35 PM 48.2 °F - 26.6 °F 43% 29.80 in 10.0 mi West 19.6 mph 27.6 mph N/A   Clear
12:55 PM 48.2 °F - 28.4 °F 46% 29.79 in 10.0 mi West 20.7 mph 27.6 mph N/A   Clear
1:15 PM 51.8 °F - 28.4 °F 41% 29.79 in 10.0 mi West 26.5 mph 31.1 mph N/A   Clear
1:35 PM 51.8 °F - 28.4 °F 41% 29.79 in 10.0 mi West 27.6 mph 34.5 mph N/A   Scattered Clouds
1:55 PM 53.6 °F - 28.4 °F 38% 29.78 in 10.0 mi West 27.6 mph 35.7 mph N/A   Clear
2:15 PM 51.8 °F - 28.4 °F 41% 29.77 in 10.0 mi West 27.6 mph 34.5 mph N/A   Clear
2:35 PM 53.6 °F - 26.6 °F 35% 29.77 in 10.0 mi West 27.6 mph 38.0 mph N/A   Clear
2:55 PM 51.8 °F - 24.8 °F 35% 29.76 in 7.0 mi West 35.7 mph 47.2 mph N/A   Clear
3:15 PM 51.8 °F - 24.8 °F 35% 29.76 in 9.0 mi West 36.8 mph 44.9 mph N/A   Clear
3:35 PM 51.8 °F - 24.8 °F 35% 29.77 in 9.0 mi West 33.4 mph 44.9 mph N/A   Clear
3:55 PM 51.8 °F - 23.0 °F 33% 29.76 in 10.0 mi West 33.4 mph 44.9 mph N/A   Clear
4:15 PM 48.2 °F - 23.0 °F 37% 29.76 in 10.0 mi West 34.5 mph 39.1 mph N/A   Clear
4:35 PM 48.2 °F - 21.2 °F 34% 29.78 in 9.0 mi West 28.8 mph 43.7 mph N/A   Clear
4:55 PM 46.4 °F 38.1 °F 21.2 °F 37% 29.79 in 10.0 mi West 24.2 mph 32.2 mph N/A   Clear
5:15 PM 44.6 °F 34.7 °F 21.2 °F 39% 29.79 in 10.0 mi West 29.9 mph 39.1 mph N/A   Clear
5:35 PM 44.6 °F 35.3 °F 21.2 °F 39% 29.80 in 10.0 mi West 26.5 mph 32.2 mph N/A   Clear
5:55 PM 44.6 °F 35.1 °F 21.2 °F 39% 29.81 in 10.0 mi West 27.6 mph 36.8 mph N/A   Clear
6:15 PM 42.8 °F 33.3 °F 21.2 °F 42% 29.82 in 10.0 mi West 24.2 mph 31.1 mph N/A   Clear
6:35 PM 42.8 °F 32.1 °F 21.2 °F 42% 29.82 in 10.0 mi West 31.1 mph 36.8 mph N/A   Clear
6:55 PM 41.0 °F 29.7 °F 19.4 °F 42% 29.83 in 10.0 mi West 31.1 mph 42.6 mph N/A   Clear
7:15 PM 41.0 °F 29.8 °F 19.4 °F 42% 29.84 in 8.0 mi West 29.9 mph 41.4 mph N/A   Clear
7:35 PM 39.2 °F 27.6 °F 19.4 °F 45% 29.84 in 10.0 mi West 28.8 mph 36.8 mph N/A   Clear
7:55 PM 39.2 °F 28.3 °F 17.6 °F 42% 29.85 in 10.0 mi West 25.3 mph 34.5 mph N/A   Clear
8:15 PM 37.4 °F 26.9 °F 17.6 °F 45% 29.88 in 10.0 mi WNW 20.7 mph 28.8 mph N/A   Clear
8:35 PM 37.4 °F 27.8 °F 17.6 °F 45% 29.88 in 10.0 mi West 17.3 mph 23.0 mph N/A   Clear
8:55 PM 37.4 °F 25.9 °F 15.8 °F 41% 29.87 in 10.0 mi WNW 25.3 mph 32.2 mph N/A   Clear
9:15 PM 37.4 °F 25.6 °F 17.6 °F 45% 29.88 in 10.0 mi WNW 26.5 mph 33.4 mph N/A   Clear
9:35 PM 37.4 °F 25.6 °F 17.6 °F 45% 29.89 in 10.0 mi West 26.5 mph 34.5 mph N/A   Clear
9:55 PM 37.4 °F 25.9 °F 15.8 °F 41% 29.91 in 10.0 mi West 25.3 mph - N/A   Clear
10:15 PM 35.6 °F 24.5 °F 15.8 °F 44% 29.92 in 10.0 mi West 20.7 mph - N/A   Clear
10:55 PM 35.6 °F 24.2 °F 17.6 °F 48% 29.92 in 10.0 mi WNW 21.9 mph 26.5 mph N/A   Clear
11:15 PM 33.8 °F 22.8 °F 15.8 °F 48% 29.92 in 10.0 mi WNW 18.4 mph - N/A   Clear
11:35 PM 33.8 °F 22.5 °F 15.8 °F 48% 29.92 in 10.0 mi WNW 19.6 mph - N/A   Clear
11:55 PM 33.8 °F 22.8 °F 15.8 °F 48% 29.92 in 10.0 mi WNW 18.4 mph - N/A   Clear